User: anonymous   Login
Location: Unspecified
(0.0000°N, 0.0000°E)
Time: 11:56:39
(UTC+00:00)
Language:

SICRAL 2 - Orbit

View from above orbital plane
View from above orbital plane
View from above satellite
View from above satellite

Ground track
Ground track

The orbit data is extracted from the following two-line orbital elements,

1 40614U 15022B   17291.41810580 0.00000000  00000-0  00000-0 0    05
2 40614   0.0100 214.5836 0002000 334.4255  25.5745  1.00270000    03
Epoch (UTC): 18 October 2017 10:02:04
Eccentricity: 0.0002000
inclination: 0.0100°
perigee height: 35778 km
apogee height: 35795 km
right ascension of ascending node: 214.5836°
argument of perigee: 334.4255°
revolutions per day: 1.00270000
mean anomaly at epoch: 25.5745°
orbit number at epoch: 0

The dashed part of the orbit path shows where the satellite is in the earth's shadow,  

DLR